Simultaneous Nadir Overpasses (SNOs) Predictions

Prediction of SNOs between FY3D and TERRA Satellite Orbit:

Table of predicted SNOs for the next 14.0 days since TLE Epoch: 9/14/2024
Index Date (FY3D) Time (FY3D) Lat,Lon (FY3D) SZA (FY3D ) Date (TERRA) Time (TERRA) Lat,Lon (TERRA) SZA (TERRA ) Distance(km) Time Diff (sec)
1 09/16/2024 01:05:40 76.23, 163.80 73.65 09/16/2024 01:05:47 76.20, 163.80 73.62 3.17 7
2 09/16/2024 01:56:23 -76.16, -28.64 106.41 09/16/2024 01:55:09 -76.19, -28.58 106.39 2.99 74
3 09/18/2024 11:27:49 -76.77,-173.73 104.88 09/18/2024 11:28:54 -76.72,-170.39 104.91 85.42 65
4 09/18/2024 12:18:22 76.21, -4.25 74.58 09/18/2024 12:18:23 76.24, -4.26 74.61 3.77 1
5 09/18/2024 13:09:00 -75.91, 164.12 105.70 09/18/2024 13:07:50 -75.99, 162.62 105.64 41.52 70
6 09/20/2024 22:40:25 -76.51, 19.19 104.18 09/20/2024 22:41:36 -76.37, 20.29 104.31 32.40 71
7 09/20/2024 23:31:04 76.21,-172.39 75.55 09/20/2024 23:30:58 76.23,-172.49 75.56 3.15 6
8 09/21/2024 00:21:36 -75.64, -3.07 105.00 09/21/2024 00:20:31 -75.68, -6.46 104.99 93.36 65
9 09/23/2024 09:53:02 -76.31,-148.18 103.42 09/23/2024 09:54:10 -76.31,-148.08 103.41 2.71 68
10 09/23/2024 10:43:46 76.24, 19.38 76.54 09/23/2024 10:43:30 76.26, 19.42 76.55 1.70 16
11 09/25/2024 21:05:43 -76.32, 43.68 102.45 09/25/2024 21:06:41 -76.29, 43.70 102.47 3.07 58
12 09/25/2024 21:56:27 76.26,-148.78 77.51 09/25/2024 21:56:01 76.23,-148.83 77.48 3.37 26



Historial Predications of SNOs between FY3D and TERRA
